﻿測定場所 (Monitoring sites),日付 (Measurement date),時間 (Measurement time),線量率 最大値 (max) μGy/h,線量率 最小値 (min) μGy/h,線量率 平均値 (average) μGy/h,
大田 (Ota),2021-07-11,23:01～24:00,0.0353,0.0311,0.0331,
大田 (Ota),2021-07-11,22:01～23:00,0.0348,0.0306,0.0330,
大田 (Ota),2021-07-11,21:01～22:00,0.0366,0.0314,0.0335,
大田 (Ota),2021-07-11,20:01～21:00,0.0357,0.0316,0.0339,
大田 (Ota),2021-07-11,19:01～20:00,0.0386,0.0330,0.0356,
大田 (Ota),2021-07-11,18:01～19:00,0.0414,0.0350,0.0376,
大田 (Ota),2021-07-11,17:01～18:00,0.0379,0.0326,0.0350,
大田 (Ota),2021-07-11,16:01～17:00,0.0355,0.0309,0.0330,
大田 (Ota),2021-07-11,15:01～16:00,0.0349,0.0310,0.0330,
大田 (Ota),2021-07-11,14:01～15:00,0.0349,0.0305,0.0327,
大田 (Ota),2021-07-11,13:01～14:00,0.0346,0.0303,0.0326,
大田 (Ota),2021-07-11,12:01～13:00,0.0342,0.0306,0.0326,
大田 (Ota),2021-07-11,11:01～12:00,0.0347,0.0309,0.0327,
大田 (Ota),2021-07-11,10:01～11:00,0.0348,0.0314,0.0328,
大田 (Ota),2021-07-11,09:01～10:00,0.0352,0.0305,0.0329,
大田 (Ota),2021-07-11,08:01～09:00,0.0348,0.0304,0.0325,
大田 (Ota),2021-07-11,07:01～08:00,0.0351,0.0298,0.0330,
大田 (Ota),2021-07-11,06:01～07:00,0.0350,0.0306,0.0326,
大田 (Ota),2021-07-11,05:01～06:00,0.0337,0.0310,0.0326,
大田 (Ota),2021-07-11,04:01～05:00,0.0357,0.0301,0.0326,
大田 (Ota),2021-07-11,03:01～04:00,0.0350,0.0305,0.0326,
大田 (Ota),2021-07-11,02:01～03:00,0.0352,0.0299,0.0326,
大田 (Ota),2021-07-11,01:01～02:00,0.0346,0.0306,0.0325,
大田 (Ota),2021-07-11,00:01～01:00,0.0345,0.0302,0.0324,
大田 (Ota),2021-07-10,23:01～24:00,0.0349,0.0301,0.0324,
大田 (Ota),2021-07-10,22:01～23:00,0.0349,0.0306,0.0326,
大田 (Ota),2021-07-10,21:01～22:00,0.0348,0.0303,0.0327,
大田 (Ota),2021-07-10,20:01～21:00,0.0345,0.0310,0.0327,
大田 (Ota),2021-07-10,19:01～20:00,0.0357,0.0313,0.0329,
大田 (Ota),2021-07-10,18:01～19:00,0.0344,0.0309,0.0326,
大田 (Ota),2021-07-10,17:01～18:00,0.0352,0.0300,0.0326,
大田 (Ota),2021-07-10,16:01～17:00,0.0350,0.0300,0.0326,
大田 (Ota),2021-07-10,15:01～16:00,0.0349,0.0308,0.0329,
大田 (Ota),2021-07-10,14:01～15:00,0.0353,0.0306,0.0332,
大田 (Ota),2021-07-10,13:01～14:00,0.0348,0.0310,0.0327,
大田 (Ota),2021-07-10,12:01～13:00,0.0350,0.0312,0.0330,
大田 (Ota),2021-07-10,11:01～12:00,0.0351,0.0304,0.0328,
大田 (Ota),2021-07-10,10:01～11:00,0.0342,0.0304,0.0325,
大田 (Ota),2021-07-10,09:01～10:00,0.0341,0.0311,0.0327,
大田 (Ota),2021-07-10,08:01～09:00,0.0342,0.0303,0.0324,
大田 (Ota),2021-07-10,07:01～08:00,0.0356,0.0307,0.0327,
大田 (Ota),2021-07-10,06:01～07:00,0.0351,0.0301,0.0326,
大田 (Ota),2021-07-10,05:01～06:00,0.0361,0.0301,0.0325,
大田 (Ota),2021-07-10,04:01～05:00,0.0349,0.0301,0.0325,
大田 (Ota),2021-07-10,03:01～04:00,0.0345,0.0303,0.0325,
大田 (Ota),2021-07-10,02:01～03:00,0.0349,0.0307,0.0323,
大田 (Ota),2021-07-10,01:01～02:00,0.0349,0.0301,0.0327,
大田 (Ota),2021-07-10,00:01～01:00,0.0342,0.0307,0.0323,
大田 (Ota),2021-07-09,23:01～24:00,0.0347,0.0296,0.0323,
大田 (Ota),2021-07-09,22:01～23:00,0.0346,0.0310,0.0328,
大田 (Ota),2021-07-09,21:01～22:00,0.0348,0.0311,0.0330,
大田 (Ota),2021-07-09,20:01～21:00,0.0389,0.0334,0.0358,
大田 (Ota),2021-07-09,19:01～20:00,0.0420,0.0359,0.0384,
大田 (Ota),2021-07-09,18:01～19:00,0.0363,0.0310,0.0340,
大田 (Ota),2021-07-09,17:01～18:00,0.0352,0.0313,0.0332,
大田 (Ota),2021-07-09,16:01～17:00,0.0351,0.0310,0.0329,
大田 (Ota),2021-07-09,15:01～16:00,0.0342,0.0296,0.0323,
大田 (Ota),2021-07-09,14:01～15:00,0.0341,0.0300,0.0323,
大田 (Ota),2021-07-09,13:01～14:00,0.0346,0.0302,0.0324,
大田 (Ota),2021-07-09,12:01～13:00,0.0357,0.0317,0.0335,
大田 (Ota),2021-07-09,11:01～12:00,0.0364,0.0311,0.0337,
大田 (Ota),2021-07-09,10:01～11:00,0.0354,0.0307,0.0329,
大田 (Ota),2021-07-09,09:01～10:00,0.0356,0.0308,0.0335,
大田 (Ota),2021-07-09,08:01～09:00,0.0394,0.0325,0.0357,
大田 (Ota),2021-07-09,07:01～08:00,0.0443,0.0361,0.0390,
大田 (Ota),2021-07-09,06:01～07:00,0.0411,0.0328,0.0362,
大田 (Ota),2021-07-09,05:01～06:00,0.0368,0.0326,0.0347,
大田 (Ota),2021-07-09,04:01～05:00,0.0349,0.0310,0.0331,
大田 (Ota),2021-07-09,03:01～04:00,0.0360,0.0306,0.0329,
大田 (Ota),2021-07-09,02:01～03:00,0.0349,0.0304,0.0322,
大田 (Ota),2021-07-09,01:01～02:00,0.0353,0.0304,0.0324,
大田 (Ota),2021-07-09,00:01～01:00,0.0359,0.0308,0.0329,
大田 (Ota),2021-07-08,23:01～24:00,0.0382,0.0319,0.0345,
大田 (Ota),2021-07-08,22:01～23:00,0.0421,0.0351,0.0377,
大田 (Ota),2021-07-08,21:01～22:00,0.0445,0.0376,0.0405,
大田 (Ota),2021-07-08,20:01～21:00,0.0425,0.0324,0.0375,
大田 (Ota),2021-07-08,19:01～20:00,0.0351,0.0312,0.0330,
大田 (Ota),2021-07-08,18:01～19:00,0.0374,0.0320,0.0345,
大田 (Ota),2021-07-08,17:01～18:00,0.0389,0.0347,0.0366,
大田 (Ota),2021-07-08,16:01～17:00,0.0411,0.0342,0.0365,
大田 (Ota),2021-07-08,15:01～16:00,0.0386,0.0327,0.0355,
大田 (Ota),2021-07-08,14:01～15:00,0.0346,0.0310,0.0329,
大田 (Ota),2021-07-08,13:01～14:00,0.0353,0.0317,0.0331,
大田 (Ota),2021-07-08,12:01～13:00,0.0355,0.0317,0.0332,
大田 (Ota),2021-07-08,11:01～12:00,0.0351,0.0309,0.0329,
大田 (Ota),2021-07-08,10:01～11:00,0.0343,0.0304,0.0324,
大田 (Ota),2021-07-08,09:01～10:00,0.0346,0.0307,0.0324,
大田 (Ota),2021-07-08,08:01～09:00,0.0344,0.0307,0.0329,
大田 (Ota),2021-07-08,07:01～08:00,0.0347,0.0308,0.0327,
大田 (Ota),2021-07-08,06:01～07:00,0.0346,0.0305,0.0325,
大田 (Ota),2021-07-08,05:01～06:00,0.0351,0.0307,0.0328,
大田 (Ota),2021-07-08,04:01～05:00,0.0351,0.0310,0.0330,
大田 (Ota),2021-07-08,03:01～04:00,0.0344,0.0306,0.0326,
大田 (Ota),2021-07-08,02:01～03:00,0.0345,0.0310,0.0328,
大田 (Ota),2021-07-08,01:01～02:00,0.0353,0.0307,0.0328,
大田 (Ota),2021-07-08,00:01～01:00,0.0342,0.0305,0.0325,
大田 (Ota),2021-07-07,23:01～24:00,0.0343,0.0308,0.0326,
大田 (Ota),2021-07-07,22:01～23:00,0.0347,0.0304,0.0326,
大田 (Ota),2021-07-07,21:01～22:00,0.0347,0.0300,0.0324,
大田 (Ota),2021-07-07,20:01～21:00,0.0347,0.0309,0.0325,
大田 (Ota),2021-07-07,19:01～20:00,0.0355,0.0308,0.0329,
大田 (Ota),2021-07-07,18:01～19:00,0.0347,0.0305,0.0326,
大田 (Ota),2021-07-07,17:01～18:00,0.0355,0.0296,0.0324,
大田 (Ota),2021-07-07,16:01～17:00,0.0345,0.0306,0.0327,
大田 (Ota),2021-07-07,15:01～16:00,0.0347,0.0309,0.0328,
大田 (Ota),2021-07-07,14:01～15:00,0.0355,0.0307,0.0329,
大田 (Ota),2021-07-07,13:01～14:00,0.0355,0.0300,0.0331,
大田 (Ota),2021-07-07,12:01～13:00,0.0354,0.0307,0.0330,
大田 (Ota),2021-07-07,11:01～12:00,0.0360,0.0307,0.0330,
大田 (Ota),2021-07-07,10:01～11:00,0.0367,0.0313,0.0337,
大田 (Ota),2021-07-07,09:01～10:00,0.0422,0.0331,0.0362,
大田 (Ota),2021-07-07,08:01～09:00,0.0430,0.0359,0.0392,
大田 (Ota),2021-07-07,07:01～08:00,0.0401,0.0318,0.0353,
大田 (Ota),2021-07-07,06:01～07:00,0.0348,0.0308,0.0327,
大田 (Ota),2021-07-07,05:01～06:00,0.0362,0.0319,0.0337,
大田 (Ota),2021-07-07,04:01～05:00,0.0350,0.0302,0.0325,
大田 (Ota),2021-07-07,03:01～04:00,0.0341,0.0302,0.0324,
大田 (Ota),2021-07-07,02:01～03:00,0.0345,0.0309,0.0327,
大田 (Ota),2021-07-07,01:01～02:00,0.0355,0.0311,0.0335,
大田 (Ota),2021-07-07,00:01～01:00,0.0383,0.0328,0.0353,
大田 (Ota),2021-07-06,23:01～24:00,0.0387,0.0343,0.0362,
大田 (Ota),2021-07-06,22:01～23:00,0.0390,0.0318,0.0360,
大田 (Ota),2021-07-06,21:01～22:00,0.0370,0.0327,0.0351,
大田 (Ota),2021-07-06,20:01～21:00,0.0389,0.0334,0.0351,
大田 (Ota),2021-07-06,19:01～20:00,0.0368,0.0314,0.0338,
大田 (Ota),2021-07-06,18:01～19:00,0.0353,0.0313,0.0332,
大田 (Ota),2021-07-06,17:01～18:00,0.0364,0.0315,0.0337,
大田 (Ota),2021-07-06,16:01～17:00,0.0367,0.0322,0.0340,
大田 (Ota),2021-07-06,15:01～16:00,0.0373,0.0320,0.0351,
大田 (Ota),2021-07-06,14:01～15:00,0.0369,0.0317,0.0337,
大田 (Ota),2021-07-06,13:01～14:00,0.0354,0.0311,0.0330,
大田 (Ota),2021-07-06,12:01～13:00,0.0345,0.0301,0.0329,
大田 (Ota),2021-07-06,11:01～12:00,0.0348,0.0308,0.0329,
大田 (Ota),2021-07-06,10:01～11:00,0.0350,0.0306,0.0324,
大田 (Ota),2021-07-06,09:01～10:00,0.0346,0.0306,0.0326,
大田 (Ota),2021-07-06,08:01～09:00,0.0354,0.0313,0.0331,
大田 (Ota),2021-07-06,07:01～08:00,0.0354,0.0301,0.0331,
大田 (Ota),2021-07-06,06:01～07:00,0.0343,0.0295,0.0322,
大田 (Ota),2021-07-06,05:01～06:00,0.0344,0.0305,0.0323,
大田 (Ota),2021-07-06,04:01～05:00,0.0342,0.0300,0.0323,
大田 (Ota),2021-07-06,03:01～04:00,0.0349,0.0304,0.0326,
大田 (Ota),2021-07-06,02:01～03:00,0.0342,0.0304,0.0325,
大田 (Ota),2021-07-06,01:01～02:00,0.0350,0.0305,0.0325,
大田 (Ota),2021-07-06,00:01～01:00,0.0336,0.0299,0.0322,
大田 (Ota),2021-07-05,23:01～24:00,0.0343,0.0303,0.0323,
大田 (Ota),2021-07-05,22:01～23:00,0.0347,0.0300,0.0324,
大田 (Ota),2021-07-05,21:01～22:00,0.0346,0.0297,0.0321,
大田 (Ota),2021-07-05,20:01～21:00,0.0344,0.0297,0.0325,
大田 (Ota),2021-07-05,19:01～20:00,0.0339,0.0300,0.0322,
大田 (Ota),2021-07-05,18:01～19:00,0.0341,0.0294,0.0322,
大田 (Ota),2021-07-05,17:01～18:00,0.0341,0.0301,0.0318,
大田 (Ota),2021-07-05,16:01～17:00,0.0345,0.0308,0.0329,
大田 (Ota),2021-07-05,15:01～16:00,0.0356,0.0314,0.0339,
大田 (Ota),2021-07-05,14:01～15:00,0.0374,0.0300,0.0342,
大田 (Ota),2021-07-05,13:01～14:00,0.0339,0.0297,0.0320,
大田 (Ota),2021-07-05,12:01～13:00,0.0342,0.0300,0.0321,
大田 (Ota),2021-07-05,11:01～12:00,0.0338,0.0299,0.0320,
大田 (Ota),2021-07-05,10:01～11:00,0.0341,0.0302,0.0321,
大田 (Ota),2021-07-05,09:01～10:00,0.0356,0.0307,0.0328,
大田 (Ota),2021-07-05,08:01～09:00,0.0390,0.0322,0.0352,
大田 (Ota),2021-07-05,07:01～08:00,0.0390,0.0340,0.0360,
大田 (Ota),2021-07-05,06:01～07:00,0.0395,0.0339,0.0358,
大田 (Ota),2021-07-05,05:01～06:00,0.0363,0.0294,0.0326,
大田 (Ota),2021-07-05,04:01～05:00,0.0335,0.0305,0.0321,
大田 (Ota),2021-07-05,03:01～04:00,0.0342,0.0295,0.0321,
大田 (Ota),2021-07-05,02:01～03:00,0.0343,0.0306,0.0325,
大田 (Ota),2021-07-05,01:01～02:00,0.0344,0.0302,0.0321,
大田 (Ota),2021-07-05,00:01～01:00,0.0336,0.0293,0.0316,
